HB9TUF-13 Weather Reports


time (UTC)temp
C
wind
direction
speed
KPH
gust
KPH
rain 1hr
cm
rain 24hr
cm
rain mn
cm
humidity
%
barometer
mb
20260506002403 8 125 0.0 0.0 0.00 0.23 0.00 100
20260506000818 8 125 0.0 0.0 0.00 0.23 0.00 100
20260505235233 8 125 0.0 0.0 0.00 0.23 0.00 100
20260505233648 8 125 0.0 0.0 0.00 0.23 0.00 100
20260505232103 8 125 0.0 0.0 0.00 0.23 0.00 100
20260505230518 8 126 0.0 0.0 0.00 0.23 0.00 100
20260505224933 10 126 0.0 0.0 0.00 0.25 0.00 100
20260505223348 10 126 0.0 0.0 0.00 0.25 0.00 100
20260505221803 10 126 0.0 0.0 0.00 0.25 0.00 100
20260505220218 8 126 0.0 0.0 0.00 0.23 0.00 100
20260505214634 10 126 0.0 0.0 0.00 0.25 0.00 100
20260505213049 10 126 0.0 0.0 0.00 0.25 0.00 100
20260505211504 10 126 0.0 0.0 0.00 0.25 0.00 100
20260505204334 10 126 0.0 0.0 0.00 0.28 0.00 100
20260505202750 10 127 0.0 0.0 0.00 0.28 0.00 100
20260505201205 10 127 0.0 0.0 0.00 0.28 0.00 100
20260505195620 11 127 0.0 0.0 0.00 0.30 0.00 100
20260505192451 11 127 0.0 0.0 0.00 0.30 0.00 100
20260505190907 12 127 0.0 0.0 0.00 0.33 0.00 100
20260505185323 12 127 0.0 0.0 0.00 0.33 0.00 100
20260505183739 13 128 0.0 0.0 0.00 0.36 0.00 100
20260505180610 15 142 0.0 0.0 0.00 0.38 0.00 100
20260505175026 15 142 0.0 0.0 0.00 0.38 0.00 100
20260505173442 15 142 0.0 0.0 0.00 0.38 0.00 100
20260505170314 13 130 0.0 0.0 0.00 0.36 0.00 100
20260505164730 13 140 0.0 0.0 0.00 0.36 0.00 100
20260505163146 13 136 0.0 0.0 0.00 0.36 0.00 100
20260505161602 13 136 0.0 0.0 0.00 0.36 0.00 100
20260505152850 13 136 0.0 0.0 0.00 0.36 0.00 100
20260505151307 13 136 0.0 0.0 0.00 0.36 0.00 100
20260505123555 18 134 0.0 0.0 0.00 0.48 0.00 100
20260505122011 17 135 0.0 0.0 0.00 0.46 0.00 100
20260505114844 15 135 0.0 0.0 0.00 0.41 0.00 100
20260505113301 15 142 0.0 0.0 0.00 0.38 0.00 100
20260505111717 15 142 0.0 0.0 0.00 0.41 0.00 100
20260505110133 15 142 0.0 0.0 0.00 0.38 0.00 100
20260505101421 15 142 0.0 0.0 0.00 0.38 0.00 100
20260505095837 13 142 0.0 0.0 0.00 0.36 0.00 100
20260505094253 13 142 0.0 0.0 0.00 0.36 0.00 100
20260505092709 13 142 0.0 0.0 0.00 0.36 0.00 100
20260505091125 12 142 0.0 0.0 0.00 0.33 0.00 100
20260505085541 12 143 0.0 0.0 0.00 0.33 0.00 100
20260505083956 12 144 0.0 0.0 0.00 0.33 0.00 100
20260505082412 11 143 0.0 0.0 0.00 0.30 0.00 100
20260505080828 11 143 0.0 0.0 0.00 0.30 0.00 100
20260505075243 11 138 0.0 0.0 0.00 0.30 0.00 100
20260505073658 10 135 0.0 0.0 0.00 0.28 0.00 100
20260505072113 10 132 0.0 0.0 0.00 0.28 0.00 100
20260505070529 10 132 0.0 0.0 0.00 0.28 0.00 100
20260505064944 10 132 0.0 0.0 0.00 0.28 0.00 100
20260505063359 10 133 0.0 0.0 0.00 0.28 0.00 100
20260505061815 10 134 0.0 0.0 0.00 0.28 0.00 100
20260505060230 10 134 0.0 0.0 0.00 0.28 0.00 100
20260505054645 10 134 0.0 0.0 0.00 0.28 0.00 100
20260505053100 10 133 0.0 0.0 0.00 0.25 0.00 100
20260505051515 10 130 0.0 0.0 0.00 0.25 0.00 100
20260505041338 8 124 0.0 0.0 0.00 0.23 0.00 100
20260505035630 8 124 0.0 0.0 0.00 0.23 0.00 100
20260505032500 8 124 0.0 0.0 0.00 0.23 0.00 100
20260505030914 8 125 0.0 0.0 0.00 0.23 0.00 100
20260505025329 8 125 0.0 0.0 0.00 0.23 0.00 100
20260505023744 8 125 0.0 0.0 0.00 0.23 0.00 100
20260505022159 8 125 0.0 0.0 0.00 0.23 0.00 100
20260505020614 8 125 0.0 0.0 0.00 0.23 0.00 100
20260505015029 8 125 0.0 0.0 0.00 0.23 0.00 100
20260505013444 8 125 0.0 0.0 0.00 0.23 0.00 100
20260505011859 8 125 0.0 0.0 0.00 0.23 0.00 100
20260505010314 8 125 0.0 0.0 0.00 0.23 0.00 100
20260505004728 10 125 0.0 0.0 0.00 0.25 0.00 100
20260505003143 10 125 0.0 0.0 0.00 0.25 0.00 100